This demonstration page uses our WeatherBlox Daily Observations layout. Learn more.

Left ArrowRight Arrow

39.08367, -84.50855

Hourly Observations for April 20, 2020

Temp ( °F °C ) Dew Point ( °F °C ) Humidity (%) Winds ( mph kmh ) Pressure ( in mb ) Visibility ( mi km ) Precip ( " mm )
12:53 am 00:53 Clear 42 5.6 41 5 96 96 Calm 29.78 1008 10 16 0.00 0.00
1:53 am 01:53 Clear with Mist and Fog 40 4.4 39 3.9 97 97 Calm 29.77 1008 5 8 0.00 0.00
2:47 am 02:47 Clear with Mist and Fog 39 4 39 4 100 100 Calm 29.78 1008 1 2 0.00 0.00
2:53 am 02:53 Clear with Mist and Fog 39 3.9 38 3.3 96 96 Calm 29.75 1008 1 2 0.00 0.00
2:58 am 02:58 Clear with Mist and Fog 40 4.4 39 3.9 97 97 Calm 29.77 1008 4 6 0.00 0.00
3:26 am 03:26 Clear with Mist and Fog 40 4.4 39 3.9 97 97 Calm 29.77 1008 2 3 0.00 0.00
3:36 am 03:36 Clear 40 4.4 39 3.9 97 97 Calm 29.77 1008 7 11 0.00 0.00
3:51 am 03:51 Clear with Mist and Fog 39 4 39 4 100 100 Calm 29.76 1008 2 3 0.00 0.00
3:53 am 03:53 Clear with Mist and Fog 39 3.9 38 3.3 96 96 Calm 29.74 1007 1 2 0.00 0.00
4:05 am 04:05 Clear with Mist and Fog 39 3.9 39 3.9 100 100 Calm 29.75 1007 3 5 0.00 0.00
4:18 am 04:18 Clear with Mist and Fog 39 3.9 38 3.3 96 96 Calm 29.75 1007 2 3 0.00 0.00
4:26 am 04:26 Clear with Mist and Fog 40 4.4 39 3.9 97 97 Calm 29.75 1007 4 6 0.00 0.00
4:53 am 04:53 Clear with Mist and Fog 39 3.9 38 3.3 96 96 Calm 29.74 1007 5 8 0.00 0.00
5:14 am 05:14 Clear with Mist and Fog 36 2.2 36 2.2 100 100 NNE 3 6 29.75 1008 2 3 0.00 0.00
5:23 am 05:23 Clear with Fog 37 2.8 36 2.2 96 96 ENE 3 6 29.75 1008 1 1 0.00 0.00
5:30 am 05:30 Clear with Mist and Fog 38 3.3 37 2.8 97 97 Calm 29.75 1007 2 3 0.00 0.00
5:37 am 05:37 Clear with Mist and Fog 38 3.3 37 2.8 97 97 Calm 29.75 1007 6 10 0.00 0.00
5:49 am 05:49 Clear with Mist and Fog 37 3 36 2 93 93 Calm 29.76 1008 2 2 0.00 0.00
5:53 am 05:53 Clear with Mist and Fog 36 2.2 36 2.2 100 100 Calm 29.74 1007 1 1 0.00 0.00
6:08 am 06:08 Clear with Mist and Fog 36 2.2 36 2.2 100 100 Calm 29.77 1008 1 2 0.00 0.00
6:22 am 06:22 Clear with Mist and Fog 36 2.2 36 2.2 100 100 Calm 29.78 1009 3 5 0.00 0.00
6:38 am 06:38 Clear with Mist and Fog 36 2.2 35 1.7 97 97 Calm 29.78 1009 2 3 0.00 0.00
6:51 am 06:51 Clear with Patchy Fog 36 2 36 2 100 100 Calm 29.79 1009 10 16 0.00 0.00
6:53 am 06:53 Sunny with Patchy Fog 36 2.2 36 2.2 100 100 Calm 29.77 1008 10 16 0.00 0.00
7:53 am 07:53 Sunny 39 3.9 37 2.8 93 93 Calm 29.79 1009 10 16 0.00 0.00
8:53 am 08:53 Sunny 46 7.8 38 3.3 73 73 Calm 29.80 1009 10 16 0.00 0.00
9:53 am 09:53 Sunny 49 9.4 38 3.3 66 66 VRB 3 6 29.80 1009 10 16 0.00 0.00
10:53 am 10:53 Sunny 53 11.7 38 3.3 57 57 Calm 29.80 1009 10 16 0.00 0.00
11:53 am 11:53 Sunny 58 14.4 36 2.2 44 44 N 3 6 29.80 1009 10 16 0.00 0.00
12:53 pm 12:53 Sunny 60 15.6 32 0 35 35 NNE 6 9 29.80 1009 10 16 0.00 0.00
1:53 pm 13:53 Sunny 62 16.7 25 -3.9 24 24 WNW 12 19 29.78 1009 10 16 0.00 0.00
2:53 pm 14:53 Sunny 64 17.8 29 -1.7 27 27 WSW 9 15 29.76 1008 10 16 0.00 0.00
3:53 pm 15:53 Sunny 64 17.8 31 -0.6 29 29 W 12 19 29.75 1007 10 16 0.00 0.00
4:53 pm 16:53 Mostly Sunny 65 18.3 31 -0.6 28 28 W 16 26 29.73 1007 10 16 0.00 0.00
5:53 pm 17:53 Mostly Sunny 65 18.3 30 -1.1 27 27 WSW 10 17 29.71 1006 10 16 0.00 0.00
6:53 pm 18:53 Partly Cloudy 64 17.8 31 -0.6 29 29 W 13 20 29.70 1006 10 16 0.00 0.00
7:53 pm 19:53 Partly Cloudy 60 15.6 32 0 35 35 SW 9 15 29.70 1006 10 16 0.00 0.00
8:53 pm 20:53 Mostly Clear 51 10.6 37 2.8 59 59 SW 5 7 29.70 1006 10 16 0.00 0.00
9:53 pm 21:53 Mostly Clear 53 11.7 36 2.2 52 52 SW 8 13 29.71 1006 10 16 0.00 0.00
10:53 pm 22:53 Partly Cloudy 54 12.2 36 2.2 51 51 SW 8 13 29.72 1007 10 16 0.00 0.00
11:53 pm 23:53 Cloudy 56 13.3 38 3.3 51 51 SW 7 11 29.70 1006 10 16 0.00 0.00

Powered by AerisWeather